Domain,Timestamp,Username,Page_title,Edit_summary,Revision_id
wikisource.org,2023-02-14 17:00:19,Apriadi ap,Page:Wawacan Babad Sumedang.djvu/69,/* Tervalidasi */ #WikiPabukon,957632
wikisource.org,2023-02-14 16:59:00,Apriadi ap,Page:Wawacan Babad Sumedang.djvu/68,/* Tervalidasi */ #WikiPabukon,957631
wikisource.org,2023-02-14 16:56:20,Apriadi ap,Page:Wawacan Babad Sumedang.djvu/67,/* Tervalidasi */ #WikiPabukon,957628
wikisource.org,2023-02-14 16:55:03,Apriadi ap,Page:Wawacan Babad Sumedang.djvu/66,/* Tervalidasi */ #WikiPabukon,957627
wikisource.org,2023-02-14 16:53:28,Apriadi ap,Page:Wawacan Babad Sumedang.djvu/65,/* Tervalidasi */ #WikiPabukon,957626
wikisource.org,2023-02-14 16:52:12,Apriadi ap,Page:Wawacan Babad Sumedang.djvu/64,/* Tervalidasi */ #WikiPabukon,957625
wikisource.org,2023-02-14 16:47:47,Apriadi ap,Page:Wawacan Babad Sumedang.djvu/63,/* Tervalidasi */ #WikiPabukon,957624
wikisource.org,2023-02-14 16:47:28,Apriadi ap,Page:Wawacan Babad Sumedang.djvu/63,/* Tervalidasi */ #WikiPabukon,957623
wikisource.org,2023-02-14 16:45:16,Apriadi ap,Page:Wawacan Babad Sumedang.djvu/62,/* Tervalidasi */ #WikiPabukon,957622
wikisource.org,2023-02-14 16:43:40,Apriadi ap,Page:Wawacan Babad Sumedang.djvu/61,/* Tervalidasi */ #WikiPabukon,957621
wikisource.org,2023-02-14 16:42:22,Apriadi ap,Page:Wawacan Babad Sumedang.djvu/60,/* Tervalidasi */ #WikiPabukon,957620
wikisource.org,2023-02-14 16:40:30,Apriadi ap,Page:Wawacan Babad Sumedang.djvu/59,/* Tervalidasi */ #WikiPabukon,957619
wikisource.org,2023-02-14 16:38:55,Apriadi ap,Page:Wawacan Babad Sumedang.djvu/58,/* Tervalidasi */ #WikiPabukon,957618
wikisource.org,2023-02-14 16:28:51,Apriadi ap,Page:Wawacan Babad Sumedang.djvu/57,/* Tervalidasi */ #WikiPabukon,957617
wikisource.org,2023-02-14 16:27:01,Apriadi ap,Page:Wawacan Babad Sumedang.djvu/56,/* Tervalidasi */ #WikiPabukon,957616
wikisource.org,2023-02-14 16:25:39,Apriadi ap,Page:Wawacan Babad Sumedang.djvu/55,/* Tervalidasi */ #WikiPabukon,957615
wikisource.org,2023-02-14 16:23:32,Apriadi ap,Page:Wawacan Babad Sumedang.djvu/54,/* Tervalidasi */ #WikiPabukon,957614
wikisource.org,2023-02-14 16:21:21,Apriadi ap,Page:Wawacan Babad Sumedang.djvu/53,/* Tervalidasi */ #WikiPabukon,957612
wikisource.org,2023-02-14 16:13:06,Apriadi ap,Page:Wawacan Babad Sumedang.djvu/52,/* Tervalidasi */ #WikiPabukon,957609
wikisource.org,2023-02-14 16:12:41,Apriadi ap,Page:Wawacan Babad Sumedang.djvu/52,/* Tervalidasi */ #WikiPabukon,957608
wikisource.org,2023-02-14 16:10:31,Apriadi ap,Page:Wawacan Babad Sumedang.djvu/51,/* Tervalidasi */ #WikiPabukon,957607
wikisource.org,2023-02-14 16:08:49,Apriadi ap,Page:Wawacan Babad Sumedang.djvu/50,/* Tervalidasi */ #WikiPabukon,957606
wikisource.org,2023-02-14 16:06:53,Apriadi ap,Page:Wawacan Babad Sumedang.djvu/49,/* Tervalidasi */ #WikiPabukon,957605
wikisource.org,2023-02-14 16:05:27,Apriadi ap,Page:Wawacan Babad Sumedang.djvu/48,/* Tervalidasi */ #WikiPabukon,957604
wikisource.org,2023-02-14 16:00:13,Apriadi ap,Page:Wawacan Babad Sumedang.djvu/47,/* Tervalidasi */ #WikiPabukon,957602
wikisource.org,2023-02-14 15:58:03,Apriadi ap,Page:Wawacan Babad Sumedang.djvu/46,/* Tervalidasi */ #WikiPabukon,957600
wikisource.org,2023-02-14 15:55:40,Apriadi ap,Page:Wawacan Babad Sumedang.djvu/45,/* Tervalidasi */ #WikiPabukon,957599
wikisource.org,2023-02-14 15:53:47,Apriadi ap,Page:Wawacan Babad Sumedang.djvu/44,/* Tervalidasi */ #WikiPabukon,957598
wikisource.org,2023-02-14 15:51:46,Apriadi ap,Page:Wawacan Babad Sumedang.djvu/43,/* Tervalidasi */ #WikiPabukon,957597
wikisource.org,2023-02-14 15:49:37,Apriadi ap,Page:Wawacan Babad Sumedang.djvu/42,/* Tervalidasi */ #WikiPabukon,957596
wikisource.org,2023-02-14 15:46:29,Apriadi ap,Page:Wawacan Babad Sumedang.djvu/41,/* Tervalidasi */ #WikiPabukon,957595
wikisource.org,2023-02-14 15:44:56,Apriadi ap,Page:Wawacan Babad Sumedang.djvu/40,/* Tervalidasi */ #WikiPabukon,957594
wikisource.org,2023-02-14 15:43:19,Apriadi ap,Page:Wawacan Babad Sumedang.djvu/39,/* Tervalidasi */ #WikiPabukon,957593
wikisource.org,2023-02-14 15:40:45,Apriadi ap,Page:Wawacan Babad Sumedang.djvu/38,/* Tervalidasi */ #WikiPabukon,957592
wikisource.org,2023-02-14 15:39:23,Apriadi ap,Page:Wawacan Babad Sumedang.djvu/37,/* Tervalidasi */ #WikiPabukon,957591
wikisource.org,2023-02-14 15:38:08,Apriadi ap,Page:Wawacan Babad Sumedang.djvu/36,/* Tervalidasi */ #WikiPabukon,957590
wikisource.org,2023-02-14 15:37:31,Apriadi ap,Page:Wawacan Babad Sumedang.djvu/36,/* Tervalidasi */ #WikiPabukon,957589
wikisource.org,2023-02-14 15:35:38,Apriadi ap,Page:Wawacan Babad Sumedang.djvu/35,/* Tervalidasi */ #WikiPabukon,957588
wikisource.org,2023-02-14 15:22:41,Apriadi ap,Page:Wawacan Seca Nala - Raden Hadji Moehamad Moesa.pdf/46,/* Tervalidasi */ #WikiPabukon,957581
wikisource.org,2023-02-14 15:22:18,Apriadi ap,Page:Wawacan Seca Nala - Raden Hadji Moehamad Moesa.pdf/46,/* Tervalidasi */ #WikiPabukon,957580
wikisource.org,2023-02-14 13:04:39,Apriadi ap,Page:Wawacan Jaka Mursada.pdf/142,/* Tervalidasi */ #WikiPabukon,957502
wikisource.org,2023-02-14 13:03:47,Apriadi ap,Page:Wawacan Jaka Mursada.pdf/141,/* Tervalidasi */ #WikiPabukon,957501
wikisource.org,2023-02-14 13:03:03,Apriadi ap,Page:Wawacan Jaka Mursada.pdf/140,/* Tervalidasi */ #WikiPabukon,957500
wikisource.org,2023-02-14 13:02:19,Apriadi ap,Page:Wawacan Jaka Mursada.pdf/139,/* Tervalidasi */ #WikiPabukon,957499
wikisource.org,2023-02-14 13:00:54,Apriadi ap,Page:Wawacan Jaka Mursada.pdf/144,/* Tervalidasi */ #WikiPabukon,957498
wikisource.org,2023-02-14 13:00:03,Apriadi ap,Page:Wawacan Jaka Mursada.pdf/149,/* Tervalidasi */ #WikiPabukon,957497
wikisource.org,2023-02-14 12:58:52,Apriadi ap,Page:Wawacan Jaka Mursada.pdf/229,/* Tervalidasi */ #WikiPabukon,957495
wikisource.org,2023-02-14 12:58:39,Apriadi ap,Page:Wawacan Jaka Mursada.pdf/229,/* Tervalidasi */ #WikiPabukon,957494
wikisource.org,2023-02-14 12:57:50,Apriadi ap,Page:Wawacan Jaka Mursada.pdf/228,/* Tervalidasi */ #WikiPabukon,957493
wikisource.org,2023-02-14 12:57:35,Apriadi ap,Page:Wawacan Jaka Mursada.pdf/228,/* Tervalidasi */ #WikiPabukon,957492
wikisource.org,2023-02-14 12:56:36,Apriadi ap,Page:Wawacan Jaka Mursada.pdf/227,/* Tervalidasi */ #WikiPabukon,957490
wikisource.org,2023-02-14 12:55:39,Apriadi ap,Page:Wawacan Jaka Mursada.pdf/226,/* Tervalidasi */ #WikiPabukon,957489
wikisource.org,2023-02-14 12:54:15,Apriadi ap,Page:Wawacan Jaka Mursada.pdf/225,/* Tervalidasi */ #WikiPabukon,957488
wikisource.org,2023-02-14 12:53:23,Apriadi ap,Page:Wawacan Jaka Mursada.pdf/224,/* Tervalidasi */ #WikiPabukon,957487
wikisource.org,2023-02-14 12:52:17,Apriadi ap,Page:Wawacan Jaka Mursada.pdf/223,/* Tervalidasi */ #WikiPabukon,957486
wikisource.org,2023-02-14 12:52:00,Apriadi ap,Page:Wawacan Jaka Mursada.pdf/223,/* Tervalidasi */ #WikiPabukon,957485
wikisource.org,2023-02-14 12:50:57,Apriadi ap,Page:Wawacan Jaka Mursada.pdf/222,/* Tervalidasi */ #WikiPabukon,957484
wikisource.org,2023-02-14 12:48:43,Apriadi ap,Page:Wawacan Jaka Mursada.pdf/221,/* Tervalidasi */ #WikiPabukon,957481
wikisource.org,2023-02-14 12:47:15,Apriadi ap,Page:Wawacan Jaka Mursada.pdf/220,/* Tervalidasi */ #WikiPabukon,957479
wikisource.org,2023-02-14 12:45:42,Apriadi ap,Page:Wawacan Jaka Mursada.pdf/219,/* Tervalidasi */ #WikiPabukon,957478
wikisource.org,2023-02-14 12:44:11,Apriadi ap,Page:Wawacan Jaka Mursada.pdf/218,/* Tervalidasi */ #WikiPabukon,957477
wikisource.org,2023-02-14 12:42:49,Apriadi ap,Page:Wawacan Jaka Mursada.pdf/217,/* Tervalidasi */ #WikiPabukon,957476
wikisource.org,2023-02-14 12:41:21,Apriadi ap,Page:Wawacan Jaka Mursada.pdf/216,/* Tervalidasi */ #WikiPabukon,957475
wikisource.org,2023-02-14 12:38:57,Apriadi ap,Page:Wawacan Jaka Mursada.pdf/215,/* Tervalidasi */ #WikiPabukon,957474
wikisource.org,2023-02-14 12:37:49,Apriadi ap,Page:Wawacan Jaka Mursada.pdf/214,/* Tervalidasi */ #WikiPabukon,957473
wikisource.org,2023-02-14 12:36:31,Apriadi ap,Page:Wawacan Jaka Mursada.pdf/213,/* Tervalidasi */ #WikiPabukon,957472
wikisource.org,2023-02-14 12:35:26,Apriadi ap,Page:Wawacan Jaka Mursada.pdf/212,/* Tervalidasi */ #WikiPabukon,957471
wikisource.org,2023-02-14 12:34:24,Apriadi ap,Page:Wawacan Jaka Mursada.pdf/211,/* Tervalidasi */ #WikiPabukon,957470
wikisource.org,2023-02-14 12:33:32,Apriadi ap,Page:Wawacan Jaka Mursada.pdf/210,/* Tervalidasi */ #WikiPabukon,957469
wikisource.org,2023-02-14 12:29:05,Apriadi ap,Page:Wawacan Jaka Mursada.pdf/209,/* Tervalidasi */ #WikiPabukon,957465
wikisource.org,2023-02-14 12:28:33,Apriadi ap,Page:Wawacan Jaka Mursada.pdf/209,/* Tervalidasi */ #WikiPabukon,957464
wikisource.org,2023-02-14 12:27:04,Apriadi ap,Page:Wawacan Jaka Mursada.pdf/233,/* Tervalidasi */ #WikiPabukon,957463
wikisource.org,2023-02-14 12:25:13,Apriadi ap,Page:Wawacan Jaka Mursada.pdf/242,/* Tervalidasi */ #WikiPabukon,957461
wikisource.org,2023-02-14 12:24:25,Apriadi ap,Page:Wawacan Jaka Mursada.pdf/241,/* Tervalidasi */ #WikiPabukon,957460
wikisource.org,2023-02-14 12:22:49,Apriadi ap,Page:Wawacan Jaka Mursada.pdf/238,/* Tervalidasi */ #WikiPabukon,957459
wikisource.org,2023-02-14 12:21:34,Apriadi ap,Page:Wawacan Jaka Mursada.pdf/254,/* Tervalidasi */ #WikiPabukon,957458
wikisource.org,2023-02-14 12:20:38,Apriadi ap,Page:Wawacan Jaka Mursada.pdf/253,/* Tervalidasi */ #WikiPabukon,957457
wikisource.org,2023-02-14 12:19:32,Apriadi ap,Page:Wawacan Jaka Mursada.pdf/252,/* Tervalidasi */ #WikiPabukon,957456
wikisource.org,2023-02-14 12:07:15,Apriadi ap,Page:Wawacan Jaka Mursada.pdf/251,/* Tervalidasi */ #WikiPabukon,957452
wikisource.org,2023-02-14 12:06:22,Apriadi ap,Page:Wawacan Jaka Mursada.pdf/250,/* Tervalidasi */ #WikiPabukon,957451
wikisource.org,2023-02-14 12:04:41,Apriadi ap,Page:Wawacan Jaka Mursada.pdf/249,/* Tervalidasi */ #WikiPabukon,957450
wikisource.org,2023-02-14 12:03:52,Apriadi ap,Page:Wawacan Jaka Mursada.pdf/248,/* Tervalidasi */ #WikiPabukon,957449
wikisource.org,2023-02-14 12:03:36,Apriadi ap,Page:Wawacan Jaka Mursada.pdf/248,/* Tervalidasi */ #WikiPabukon,957448
wikisource.org,2023-02-14 12:02:44,Apriadi ap,Page:Wawacan Jaka Mursada.pdf/247,/* Tervalidasi */ #WikiPabukon,957446
wikisource.org,2023-02-14 12:01:40,Apriadi ap,Page:Wawacan Jaka Mursada.pdf/246,/* Tervalidasi */ #WikiPabukon,957445
wikisource.org,2023-02-14 12:00:41,Apriadi ap,Page:Wawacan Jaka Mursada.pdf/245,/* Tervalidasi */ #WikiPabukon,957444
wikisource.org,2023-02-14 11:59:34,Apriadi ap,Page:Wawacan Jaka Mursada.pdf/244,/* Tervalidasi */ #WikiPabukon,957443
wikisource.org,2023-02-14 11:58:28,Apriadi ap,Page:Wawacan Jaka Mursada.pdf/340,/* Tervalidasi */ #WikiPabukon,957442
wikisource.org,2023-02-14 11:57:22,Apriadi ap,Page:Wawacan Jaka Mursada.pdf/338,/* Tervalidasi */ #WikiPabukon,957441
wikisource.org,2023-02-14 11:56:14,Apriadi ap,Page:Wawacan Jaka Mursada.pdf/337,/* Tervalidasi */ #WikiPabukon,957440
wikisource.org,2023-02-14 11:55:04,Apriadi ap,Page:Wawacan Jaka Mursada.pdf/336,/* Tervalidasi */ #WikiPabukon,957439
wikisource.org,2023-02-14 11:53:58,Apriadi ap,Page:Wawacan Jaka Mursada.pdf/335,/* Tervalidasi */ #WikiPabukon,957438
wikisource.org,2023-02-14 11:53:41,Apriadi ap,Page:Wawacan Jaka Mursada.pdf/335,/* Tervalidasi */ #WikiPabukon,957437
wikisource.org,2023-02-14 11:52:41,Apriadi ap,Page:Wawacan Jaka Mursada.pdf/334,/* Tervalidasi */ #WikiPabukon,957436
wikisource.org,2023-02-14 11:51:32,Apriadi ap,Page:Wawacan Jaka Mursada.pdf/333,/* Tervalidasi */ #WikiPabukon,957435
wikisource.org,2023-02-14 11:50:10,Apriadi ap,Page:Wawacan Jaka Mursada.pdf/332,/* Tervalidasi */ #WikiPabukon,957434
wikisource.org,2023-02-14 11:49:10,Apriadi ap,Page:Wawacan Jaka Mursada.pdf/331,/* Tervalidasi */ #WikiPabukon,957433
wikisource.org,2023-02-14 11:48:08,Apriadi ap,Page:Wawacan Jaka Mursada.pdf/330,/* Tervalidasi */ #WikiPabukon,957432
wikisource.org,2023-02-14 11:47:06,Apriadi ap,Page:Wawacan Jaka Mursada.pdf/329,/* Tervalidasi */ #WikiPabukon,957431
wikisource.org,2023-02-14 11:46:03,Apriadi ap,Page:Wawacan Jaka Mursada.pdf/328,/* Tervalidasi */ #WikiPabukon,957430
wikisource.org,2023-02-14 11:24:49,Apriadi ap,Page:Wawacan Jaka Mursada.pdf/327,/* Tervalidasi */ #WikiPabukon,957427
wikisource.org,2023-02-14 11:23:27,Apriadi ap,Page:Wawacan Jaka Mursada.pdf/326,/* Tervalidasi */ #WikiPabukon,957426
wikisource.org,2023-02-14 11:22:29,Apriadi ap,Page:Wawacan Jaka Mursada.pdf/325,/* Tervalidasi */ #WikiPabukon,957425
wikisource.org,2023-02-14 11:21:24,Apriadi ap,Page:Wawacan Jaka Mursada.pdf/324,/* Tervalidasi */ #WikiPabukon,957424
wikisource.org,2023-02-14 11:20:04,Apriadi ap,Page:Wawacan Jaka Mursada.pdf/323,/* Tervalidasi */ #WikiPabukon,957423
wikisource.org,2023-02-14 11:18:51,Apriadi ap,Page:Wawacan Jaka Mursada.pdf/322,/* Tervalidasi */ #WikiPabukon,957422
wikisource.org,2023-02-14 11:18:03,Apriadi ap,Page:Wawacan Jaka Mursada.pdf/321,/* Tervalidasi */ #WikiPabukon,957421
wikisource.org,2023-02-14 11:17:17,Apriadi ap,Page:Wawacan Jaka Mursada.pdf/320,/* Tervalidasi */ #WikiPabukon,957420
wikisource.org,2023-02-14 11:16:33,Apriadi ap,Page:Wawacan Jaka Mursada.pdf/319,/* Tervalidasi */ #WikiPabukon,957419
wikisource.org,2023-02-14 11:16:14,Apriadi ap,Page:Wawacan Jaka Mursada.pdf/319,/* Tervalidasi */ #WikiPabukon,957418
wikisource.org,2023-02-14 11:13:43,Apriadi ap,Page:Wawacan Jaka Mursada.pdf/318,/* Tervalidasi */ #WikiPabukon,957417
wikisource.org,2023-02-14 11:13:07,Apriadi ap,Page:Wawacan Jaka Mursada.pdf/317,/* Tervalidasi */ #WikiPabukon,957416
wikisource.org,2023-02-14 11:12:27,Apriadi ap,Page:Wawacan Jaka Mursada.pdf/316,/* Tervalidasi */ #WikiPabukon,957414
wikisource.org,2023-02-14 11:11:33,Apriadi ap,Page:Wawacan Jaka Mursada.pdf/315,/* Tervalidasi */ #WikiPabukon,957413
wikisource.org,2023-02-14 11:10:42,Apriadi ap,Page:Wawacan Jaka Mursada.pdf/314,/* Tervalidasi */ #WikiPabukon,957412
wikisource.org,2023-02-14 11:09:48,Apriadi ap,Page:Wawacan Jaka Mursada.pdf/313,/* Tervalidasi */ #WikiPabukon,957411
wikisource.org,2023-02-14 11:09:03,Apriadi ap,Page:Wawacan Jaka Mursada.pdf/312,/* Tervalidasi */ #WikiPabukon,957410
wikisource.org,2023-02-14 11:08:27,Apriadi ap,Page:Wawacan Jaka Mursada.pdf/312,/* Tervalidasi */ #WikiPabukon,957409
wikisource.org,2023-02-14 11:07:30,Apriadi ap,Page:Wawacan Jaka Mursada.pdf/311,/* Tervalidasi */ #WikiPabukon,957408
wikisource.org,2023-02-14 11:06:37,Apriadi ap,Page:Wawacan Jaka Mursada.pdf/310,/* Tervalidasi */ #WikiPabukon,957407
wikisource.org,2023-02-14 11:05:46,Apriadi ap,Page:Wawacan Jaka Mursada.pdf/309,/* Tervalidasi */ #WikiPabukon,957406
wikisource.org,2023-02-14 11:04:52,Apriadi ap,Page:Wawacan Jaka Mursada.pdf/308,/* Tervalidasi */ #WikiPabukon,957405
wikisource.org,2023-02-14 10:58:15,Apriadi ap,Page:Wawacan Jaka Mursada.pdf/307,/* Tervalidasi */ #WikiPabukon,957403
wikisource.org,2023-02-14 10:57:07,Apriadi ap,Page:Wawacan Jaka Mursada.pdf/306,/* Tervalidasi */ #WikiPabukon,957401
wikisource.org,2023-02-14 10:56:24,Apriadi ap,Page:Wawacan Jaka Mursada.pdf/305,/* Tervalidasi */ #WikiPabukon,957400
wikisource.org,2023-02-14 10:55:38,Apriadi ap,Page:Wawacan Jaka Mursada.pdf/304,/* Tervalidasi */ #WikiPabukon,957398
wikisource.org,2023-02-14 10:54:48,Apriadi ap,Page:Wawacan Jaka Mursada.pdf/303,/* Tervalidasi */ #WikiPabukon,957396
wikisource.org,2023-02-14 10:53:49,Apriadi ap,Page:Wawacan Jaka Mursada.pdf/302,/* Tervalidasi */ #WikiPabukon,957395
wikisource.org,2023-02-14 10:52:50,Apriadi ap,Page:Wawacan Jaka Mursada.pdf/301,/* Tervalidasi */ #WikiPabukon,957393
wikisource.org,2023-02-14 10:51:53,Apriadi ap,Page:Wawacan Jaka Mursada.pdf/300,/* Tervalidasi */ #WikiPabukon,957392
wikisource.org,2023-02-14 10:50:59,Apriadi ap,Page:Wawacan Jaka Mursada.pdf/299,/* Tervalidasi */ #WikiPabukon,957390
wikisource.org,2023-02-14 10:49:55,Apriadi ap,Page:Wawacan Jaka Mursada.pdf/298,/* Tervalidasi */ #WikiPabukon,957388
wikisource.org,2023-02-14 10:48:30,Apriadi ap,Page:Wawacan Jaka Mursada.pdf/297,/* Tervalidasi */ #WikiPabukon,957387
wikisource.org,2023-02-14 10:47:41,Apriadi ap,Page:Wawacan Jaka Mursada.pdf/296,/* Tervalidasi */ #WikiPabukon,957386
wikisource.org,2023-02-14 10:46:16,Apriadi ap,Page:Wawacan Jaka Mursada.pdf/295,/* Tervalidasi */ #WikiPabukon,957385
wikisource.org,2023-02-14 10:45:13,Apriadi ap,Page:Wawacan Jaka Mursada.pdf/294,/* Tervalidasi */ #WikiPabukon,957383
wikisource.org,2023-02-14 10:44:28,Apriadi ap,Page:Wawacan Jaka Mursada.pdf/293,/* Tervalidasi */ #WikiPabukon,957382
wikisource.org,2023-02-14 10:43:20,Apriadi ap,Page:Wawacan Jaka Mursada.pdf/292,/* Tervalidasi */ #WikiPabukon,957381
wikisource.org,2023-02-14 10:42:19,Apriadi ap,Page:Wawacan Jaka Mursada.pdf/291,/* Tervalidasi */ #WikiPabukon,957380
wikisource.org,2023-02-14 10:41:26,Apriadi ap,Page:Wawacan Jaka Mursada.pdf/290,/* Tervalidasi */ #WikiPabukon,957379
wikisource.org,2023-02-14 10:40:34,Apriadi ap,Page:Wawacan Jaka Mursada.pdf/289,/* Tervalidasi */ #WikiPabukon,957377
wikisource.org,2023-02-14 10:39:38,Apriadi ap,Page:Wawacan Jaka Mursada.pdf/288,/* Tervalidasi */ #WikiPabukon,957375
wikisource.org,2023-02-14 10:38:35,Apriadi ap,Page:Wawacan Jaka Mursada.pdf/287,/* Tervalidasi */ #WikiPabukon,957374
wikisource.org,2023-02-14 10:37:46,Apriadi ap,Page:Wawacan Jaka Mursada.pdf/286,/* Tervalidasi */ #WikiPabukon,957373
wikisource.org,2023-02-14 10:37:31,Apriadi ap,Page:Wawacan Jaka Mursada.pdf/286,/* Tervalidasi */ #WikiPabukon,957372
wikisource.org,2023-02-14 10:26:18,Apriadi ap,Page:Wawacan Jaka Mursada.pdf/285,/* Tervalidasi */ #WikiPabukon,957365
wikisource.org,2023-02-14 10:25:05,Apriadi ap,Page:Wawacan Jaka Mursada.pdf/284,/* Tervalidasi */ #WikiPabukon,957362
wikisource.org,2023-02-14 10:24:09,Apriadi ap,Page:Wawacan Jaka Mursada.pdf/283,/* Tervalidasi */ #WikiPabukon,957360
wikisource.org,2023-02-14 10:23:14,Apriadi ap,Page:Wawacan Jaka Mursada.pdf/282,/* Tervalidasi */ #WikiPabukon,957359
wikisource.org,2023-02-14 10:22:07,Apriadi ap,Page:Wawacan Jaka Mursada.pdf/281,/* Tervalidasi */ #WikiPabukon,957358
wikisource.org,2023-02-14 10:20:25,Apriadi ap,Page:Wawacan Jaka Mursada.pdf/280,/* Tervalidasi */ #WikiPabukon,957356
wikisource.org,2023-02-14 10:19:16,Apriadi ap,Page:Wawacan Jaka Mursada.pdf/279,/* Tervalidasi */ #WikiPabukon,957355
wikisource.org,2023-02-14 10:19:01,Apriadi ap,Page:Wawacan Jaka Mursada.pdf/279,/* Tervalidasi */ #WikiPabukon,957354
wikisource.org,2023-02-14 10:18:16,Apriadi ap,Page:Wawacan Jaka Mursada.pdf/278,/* Tervalidasi */ #WikiPabukon,957352
wikisource.org,2023-02-14 10:17:27,Apriadi ap,Page:Wawacan Jaka Mursada.pdf/277,/* Tervalidasi */ #WikiPabukon,957351
wikisource.org,2023-02-14 10:16:33,Apriadi ap,Page:Wawacan Jaka Mursada.pdf/276,/* Tervalidasi */ #WikiPabukon,957349
wikisource.org,2023-02-14 10:15:32,Apriadi ap,Page:Wawacan Jaka Mursada.pdf/275,/* Tervalidasi */ #WikiPabukon,957348
wikisource.org,2023-02-14 10:14:13,Apriadi ap,Page:Wawacan Jaka Mursada.pdf/274,/* Tervalidasi */ #WikiPabukon,957346
wikisource.org,2023-02-14 10:13:02,Apriadi ap,Page:Wawacan Jaka Mursada.pdf/273,/* Tervalidasi */ #WikiPabukon,957343
wikisource.org,2023-02-14 10:11:35,Apriadi ap,Page:Wawacan Jaka Mursada.pdf/272,/* Tervalidasi */ #WikiPabukon,957341
wikisource.org,2023-02-14 10:10:29,Apriadi ap,Page:Wawacan Jaka Mursada.pdf/271,/* Tervalidasi */ #WikiPabukon,957339
wikisource.org,2023-02-14 10:09:14,Apriadi ap,Page:Wawacan Jaka Mursada.pdf/270,/* Tervalidasi */ #WikiPabukon,957338
wikisource.org,2023-02-14 10:07:58,Apriadi ap,Page:Wawacan Jaka Mursada.pdf/269,/* Tervalidasi */ #WikiPabukon,957337
wikisource.org,2023-02-14 10:06:01,Apriadi ap,Page:Wawacan Jaka Mursada.pdf/268,/* Tervalidasi */ #WikiPabukon,957336
wikisource.org,2023-02-14 10:04:05,Apriadi ap,Page:Wawacan Jaka Mursada.pdf/267,/* Tervalidasi */ #WikiPabukon,957335
wikisource.org,2023-02-14 10:02:42,Apriadi ap,Page:Wawacan Jaka Mursada.pdf/266,/* Tervalidasi */ #WikiPabukon,957333
wikisource.org,2023-02-14 10:01:13,Apriadi ap,Page:Wawacan Jaka Mursada.pdf/265,/* Tervalidasi */ #WikiPabukon,957331
wikisource.org,2023-02-14 09:59:46,Apriadi ap,Page:Wawacan Jaka Mursada.pdf/264,/* Tervalidasi */ #WikiPabukon,957329
wikisource.org,2023-02-14 09:58:07,Apriadi ap,Page:Wawacan Jaka Mursada.pdf/263,/* Tervalidasi */ #WikiPabukon,957328
wikisource.org,2023-02-14 09:56:10,Apriadi ap,Page:Wawacan Jaka Mursada.pdf/262,/* Tervalidasi */ #WikiPabukon,957327
wikisource.org,2023-02-14 09:54:42,Apriadi ap,Page:Wawacan Jaka Mursada.pdf/261,/* Tervalidasi */ #WikiPabukon,957324
wikisource.org,2023-02-14 09:52:48,Apriadi ap,Page:Wawacan Jaka Mursada.pdf/260,/* Tervalidasi */ #WikiPabukon,957323
wikisource.org,2023-02-14 09:51:27,Apriadi ap,Page:Wawacan Jaka Mursada.pdf/259,/* Tervalidasi */ #WikiPabukon,957321
wikisource.org,2023-02-14 09:49:52,Apriadi ap,Page:Wawacan Jaka Mursada.pdf/258,/* Tervalidasi */ #WikiPabukon,957320
wikisource.org,2023-02-14 09:48:13,Apriadi ap,Page:Wawacan Jaka Mursada.pdf/257,/* Tervalidasi */ #WikiPabukon,957319
wikisource.org,2023-02-14 09:46:58,Apriadi ap,Page:Wawacan Jaka Mursada.pdf/256,/* Tervalidasi */ #WikiPabukon,957317
wikisource.org,2023-02-14 09:45:33,Apriadi ap,Page:Wawacan Jaka Mursada.pdf/255,/* Tervalidasi */ #WikiPabukon,957315
wikisource.org,2023-02-14 07:05:54,Apriadi ap,Page:Wawacan Jaka Mursada.pdf/208,/* Tervalidasi */ #WikiPabukon,957255
wikisource.org,2023-02-14 07:05:21,Apriadi ap,Page:Wawacan Jaka Mursada.pdf/207,/* Tervalidasi */ #WikiPabukon,957254
wikisource.org,2023-02-14 07:04:49,Apriadi ap,Page:Wawacan Jaka Mursada.pdf/206,/* Tervalidasi */ #WikiPabukon,957253
wikisource.org,2023-02-14 07:04:07,Apriadi ap,Page:Wawacan Jaka Mursada.pdf/205,/* Tervalidasi */ #WikiPabukon,957252
wikisource.org,2023-02-14 07:03:33,Apriadi ap,Page:Wawacan Jaka Mursada.pdf/204,/* Tervalidasi */ #WikiPabukon,957251
wikisource.org,2023-02-14 07:03:03,Apriadi ap,Page:Wawacan Jaka Mursada.pdf/203,/* Tervalidasi */ #WikiPabukon,957250
wikisource.org,2023-02-14 07:02:32,Apriadi ap,Page:Wawacan Jaka Mursada.pdf/202,/* Tervalidasi */ #WikiPabukon,957249
wikisource.org,2023-02-14 06:59:33,Apriadi ap,Page:Wawacan Jaka Mursada.pdf/201,/* Tervalidasi */ #WikiPabukon,957247
wikisource.org,2023-02-14 06:58:53,Apriadi ap,Page:Wawacan Jaka Mursada.pdf/200,/* Tervalidasi */ #WikiPabukon,957246
wikisource.org,2023-02-14 06:58:05,Apriadi ap,Page:Wawacan Jaka Mursada.pdf/199,/* Tervalidasi */ #WikiPabukon,957245
wikisource.org,2023-02-14 06:56:35,Apriadi ap,Page:Wawacan Jaka Mursada.pdf/197,/* Tervalidasi */ #WikiPabukon,957243
wikisource.org,2023-02-14 06:55:16,Apriadi ap,Page:Wawacan Jaka Mursada.pdf/196,/* Tervalidasi */ #WikiPabukon,957241
wikisource.org,2023-02-14 06:54:59,Apriadi ap,Page:Wawacan Jaka Mursada.pdf/196,/* Tervalidasi */ #WikiPabukon,957240
wikisource.org,2023-02-14 06:53:43,Apriadi ap,Page:Wawacan Jaka Mursada.pdf/195,/* Tervalidasi */ #WikiPabukon,957239
wikisource.org,2023-02-14 06:52:35,Apriadi ap,Page:Wawacan Jaka Mursada.pdf/194,/* Tervalidasi */ #WikiPabukon,957238
wikisource.org,2023-02-14 06:51:13,Apriadi ap,Page:Wawacan Jaka Mursada.pdf/193,/* Tervalidasi */ #WikiPabukon,957237
wikisource.org,2023-02-14 06:50:11,Apriadi ap,Page:Wawacan Jaka Mursada.pdf/189,/* Tervalidasi */ #WikiPabukon,957236
wikisource.org,2023-02-14 06:49:35,Apriadi ap,Page:Wawacan Jaka Mursada.pdf/188,/* Tervalidasi */ #WikiPabukon,957235
wikisource.org,2023-02-14 06:48:53,Apriadi ap,Page:Wawacan Jaka Mursada.pdf/187,/* Tervalidasi */ #WikiPabukon,957233
wikisource.org,2023-02-14 06:35:43,Apriadi ap,Page:Wawacan Jaka Mursada.pdf/186,/* Tervalidasi */ #WikiPabukon,957228
wikisource.org,2023-02-14 06:34:34,Apriadi ap,Page:Wawacan Jaka Mursada.pdf/185,/* Tervalidasi */ #WikiPabukon,957227
wikisource.org,2023-02-14 06:33:56,Apriadi ap,Page:Wawacan Jaka Mursada.pdf/184,/* Tervalidasi */ #WikiPabukon,957226
wikisource.org,2023-02-14 06:33:07,Apriadi ap,Page:Wawacan Jaka Mursada.pdf/183,/* Tervalidasi */ #WikiPabukon,957225